Time,TemperatureF,DewpointF,PressureIn,WindDirection,WindDirectionDegrees,WindSpeedMPH,WindSpeedGustMPH,Humidity,HourlyPrecipIn,Conditions,Clouds,dailyrainin,SoftwareType,DateUTC
2013-04-27 00:23:00,41.0,-99.9,30.44,NW,326,-999.0,-999.0,-999,-99.99,,,-99.99,,2013-04-27 04:23:00,
2013-04-27 00:33:00,41.0,-99.9,30.44,NW,326,-999.0,-999.0,-999,-99.99,,,-99.99,,2013-04-27 04:33:00,
2013-04-27 00:43:00,41.0,-99.9,30.44,NW,326,-999.0,-999.0,-999,-99.99,,,-99.99,,2013-04-27 04:43:00,
2013-04-27 00:52:00,39.0,-99.9,30.45,NW,326,-999.0,-999.0,-999,-99.99,,,-99.99,,2013-04-27 04:52:00,
2013-04-27 01:22:00,39.0,-99.9,30.45,NW,326,-999.0,-999.0,-999,-99.99,,,-99.99,,2013-04-27 05:22:00,
2013-04-27 01:32:00,39.0,-99.9,30.45,NW,326,-999.0,-999.0,-999,-99.99,,,-99.99,,2013-04-27 05:32:00,
2013-04-27 01:42:00,39.0,-99.9,30.45,NW,326,-999.0,-999.0,-999,-99.99,,,-99.99,,2013-04-27 05:42:00,
2013-04-27 01:52:00,38.0,-99.9,30.45,NW,326,-999.0,-999.0,-999,-99.99,,,-99.99,,2013-04-27 05:52:00,
2013-04-27 02:22:00,38.0,-99.9,30.45,NW,326,-999.0,-999.0,-999,-99.99,,,-99.99,,2013-04-27 06:22:00,
2013-04-27 02:32:00,38.0,-99.9,30.45,NW,326,-999.0,-999.0,-999,-99.99,,,-99.99,,2013-04-27 06:32:00,
2013-04-27 02:42:00,38.0,-99.9,30.45,NW,326,-999.0,-999.0,-999,-99.99,,,-99.99,,2013-04-27 06:42:00,
2013-04-27 02:52:00,36.0,-99.9,30.44,NW,326,-999.0,-999.0,-999,-99.99,,,-99.99,,2013-04-27 06:52:00,
2013-04-27 03:22:00,36.0,-99.9,30.44,NW,326,-999.0,-999.0,-999,-99.99,,,-99.99,,2013-04-27 07:22:00,
2013-04-27 03:32:00,36.0,-99.9,30.44,NW,326,-999.0,-999.0,-999,-99.99,,,-99.99,,2013-04-27 07:32:00,
2013-04-27 03:42:00,36.0,-99.9,30.44,NW,326,-999.0,-999.0,-999,-99.99,,,-99.99,,2013-04-27 07:42:00,
2013-04-27 03:52:00,35.0,-99.9,30.45,NW,326,-999.0,-999.0,-999,-99.99,,,-99.99,,2013-04-27 07:52:00,
2013-04-27 04:33:00,35.0,-99.9,30.45,NW,326,-999.0,-999.0,-999,-99.99,,,-99.99,,2013-04-27 08:33:00,
2013-04-27 04:42:00,35.0,-99.9,30.45,NW,326,-999.0,-999.0,-999,-99.99,,,-99.99,,2013-04-27 08:42:00,
2013-04-27 05:52:00,33.0,-99.9,30.45,NW,326,-999.0,-999.0,-999,-99.99,,,-99.99,,2013-04-27 09:52:00,
2013-04-27 06:33:00,33.0,-99.9,30.45,NW,326,-999.0,-999.0,-999,-99.99,,,-99.99,,2013-04-27 10:33:00,
2013-04-27 06:42:00,33.0,-99.9,30.45,NW,326,-999.0,-999.0,-999,-99.99,,,-99.99,,2013-04-27 10:42:00,
2013-04-27 06:52:00,34.0,-99.9,30.46,NW,326,-999.0,-999.0,-999,-99.99,,,-99.99,,2013-04-27 10:52:00,
2013-04-27 07:22:00,34.0,-99.9,30.46,NW,326,-999.0,-999.0,-999,-99.99,,,-99.99,,2013-04-27 11:22:00,
2013-04-27 07:32:00,34.0,-99.9,30.46,NW,326,-999.0,-999.0,-999,-99.99,,,-99.99,,2013-04-27 11:32:00,
2013-04-27 07:42:00,34.0,-99.9,30.46,NW,326,-999.0,-999.0,-999,-99.99,,,-99.99,,2013-04-27 11:42:00,
2013-04-27 07:52:00,42.0,-99.9,30.46,NW,326,-999.0,-999.0,-999,-99.99,,,-99.99,,2013-04-27 11:52:00,
2013-04-27 08:22:00,42.0,-99.9,30.46,NW,326,-999.0,-999.0,-999,-99.99,,,-99.99,,2013-04-27 12:22:00,
2013-04-27 08:32:00,42.0,-99.9,30.46,NW,326,-999.0,-999.0,-999,-99.99,,,-99.99,,2013-04-27 12:32:00,
2013-04-27 08:42:00,42.0,-99.9,30.46,NW,326,-999.0,-999.0,-999,-99.99,,,-99.99,,2013-04-27 12:42:00,
2013-04-27 08:52:00,50.0,-99.9,30.45,NW,326,-999.0,-999.0,-999,-99.99,,,-99.99,,2013-04-27 12:52:00,
2013-04-27 09:22:00,50.0,-99.9,30.45,NW,326,-999.0,-999.0,-999,-99.99,,,-99.99,,2013-04-27 13:22:00,
2013-04-27 09:32:00,50.0,-99.9,30.45,NW,326,-999.0,-999.0,-999,-99.99,,,-99.99,,2013-04-27 13:32:00,
2013-04-27 09:42:00,50.0,-99.9,30.45,NW,326,-999.0,-999.0,-999,-99.99,,,-99.99,,2013-04-27 13:42:00,
2013-04-27 09:52:00,56.0,-99.9,30.44,NNE,14,-999.0,-999.0,-999,-99.99,,,-99.99,,2013-04-27 13:52:00,
2013-04-27 10:22:00,56.0,-99.9,30.44,NNE,14,-999.0,-999.0,-999,-99.99,,,-99.99,,2013-04-27 14:22:00,
2013-04-27 10:32:00,56.0,-99.9,30.44,NNE,14,-999.0,-999.0,-999,-99.99,,,-99.99,,2013-04-27 14:32:00,
2013-04-27 10:42:00,56.0,-99.9,30.44,NNE,14,-999.0,-999.0,-999,-99.99,,,-99.99,,2013-04-27 14:42:00,
2013-04-27 10:52:00,60.0,-99.9,30.43,NNE,21,-999.0,7.0,-999,-99.99,,,-99.99,,2013-04-27 14:52:00,
2013-04-27 11:22:00,60.0,-99.9,30.43,NNE,21,-999.0,7.0,-999,-99.99,,,-99.99,,2013-04-27 15:22:00,
2013-04-27 11:33:00,60.0,-99.9,30.43,NNE,21,-999.0,7.0,-999,-99.99,,,-99.99,,2013-04-27 15:33:00,
2013-04-27 11:43:00,60.0,-99.9,30.43,NNE,21,-999.0,7.0,-999,-99.99,,,-99.99,,2013-04-27 15:43:00,
2013-04-27 11:52:00,62.0,-99.9,30.41,NNE,16,-999.0,-999.0,-999,-99.99,,,-99.99,,2013-04-27 15:52:00,
2013-04-27 12:23:00,62.0,-99.9,30.41,NNE,16,-999.0,-999.0,-999,-99.99,,,-99.99,,2013-04-27 16:23:00,
2013-04-27 12:33:00,62.0,-99.9,30.41,NNE,16,-999.0,-999.0,-999,-99.99,,,-99.99,,2013-04-27 16:33:00,
2013-04-27 12:42:00,62.0,-99.9,30.41,NNE,16,-999.0,-999.0,-999,-99.99,,,-99.99,,2013-04-27 16:42:00,
2013-04-27 12:52:00,64.0,-99.9,30.38,North,-999,-999.0,4.0,-999,-99.99,,,-99.99,,2013-04-27 16:52:00,
2013-04-27 13:22:00,64.0,-99.9,30.38,North,-999,-999.0,4.0,-999,-99.99,,,-99.99,,2013-04-27 17:22:00,
2013-04-27 13:32:00,64.0,-99.9,30.38,North,-999,-999.0,4.0,-999,-99.99,,,-99.99,,2013-04-27 17:32:00,
2013-04-27 13:42:00,64.0,-99.9,30.38,North,-999,-999.0,4.0,-999,-99.99,,,-99.99,,2013-04-27 17:42:00,
2013-04-27 13:52:00,67.0,-99.9,30.35,NNE,20,-999.0,7.0,-999,-99.99,,,-99.99,,2013-04-27 17:52:00,
2013-04-27 14:22:00,67.0,-99.9,30.35,NNE,20,-999.0,7.0,-999,-99.99,,,-99.99,,2013-04-27 18:22:00,
2013-04-27 14:32:00,67.0,-99.9,30.35,NNE,20,-999.0,7.0,-999,-99.99,,,-99.99,,2013-04-27 18:32:00,
2013-04-27 14:42:00,67.0,-99.9,30.35,NNE,20,-999.0,7.0,-999,-99.99,,,-99.99,,2013-04-27 18:42:00,
2013-04-27 14:52:00,69.0,-99.9,30.33,SE,135,10.0,11.0,-999,-99.99,,,-99.99,,2013-04-27 18:52:00,
2013-04-27 15:32:00,69.0,-99.9,30.33,SE,135,10.0,11.0,-999,-99.99,,,-99.99,,2013-04-27 19:32:00,
2013-04-27 15:42:00,69.0,-99.9,30.33,SE,135,10.0,11.0,-999,-99.99,,,-99.99,,2013-04-27 19:42:00,
2013-04-27 15:52:00,68.0,-99.9,30.30,West,273,-999.0,9.0,-999,-99.99,,,-99.99,,2013-04-27 19:52:00,
2013-04-27 16:22:00,68.0,-99.9,30.30,West,273,-999.0,9.0,-999,-99.99,,,-99.99,,2013-04-27 20:22:00,
2013-04-27 16:32:00,68.0,-99.9,30.30,West,273,-999.0,9.0,-999,-99.99,,,-99.99,,2013-04-27 20:32:00,
2013-04-27 16:42:00,68.0,-99.9,30.30,West,273,-999.0,9.0,-999,-99.99,,,-99.99,,2013-04-27 20:42:00,
2013-04-27 16:52:00,67.0,-99.9,30.29,West,262,-999.0,-999.0,-999,-99.99,,,-99.99,,2013-04-27 20:52:00,
2013-04-27 17:22:00,67.0,-99.9,30.29,West,262,-999.0,-999.0,-999,-99.99,,,-99.99,,2013-04-27 21:22:00,
2013-04-27 17:33:00,67.0,-99.9,30.29,West,262,-999.0,-999.0,-999,-99.99,,,-99.99,,2013-04-27 21:33:00,
2013-04-27 17:43:00,67.0,-99.9,30.29,West,262,-999.0,-999.0,-999,-99.99,,,-99.99,,2013-04-27 21:43:00,
2013-04-27 17:52:00,66.0,-99.9,30.29,SSW,206,-999.0,7.0,-999,-99.99,,,-99.99,,2013-04-27 21:52:00,
2013-04-27 18:23:00,66.0,-99.9,30.29,SSW,206,-999.0,7.0,-999,-99.99,,,-99.99,,2013-04-27 22:23:00,
2013-04-27 18:32:00,66.0,-99.9,30.29,SSW,206,-999.0,7.0,-999,-99.99,,,-99.99,,2013-04-27 22:32:00,
2013-04-27 18:42:00,66.0,-99.9,30.29,SSW,206,-999.0,7.0,-999,-99.99,,,-99.99,,2013-04-27 22:42:00,
2013-04-27 18:52:00,63.0,-99.9,30.28,SSE,166,-999.0,6.0,-999,-99.99,,,-99.99,,2013-04-27 22:52:00,
2013-04-27 19:22:00,63.0,-99.9,30.28,SSE,166,-999.0,6.0,-999,-99.99,,,-99.99,,2013-04-27 23:22:00,
2013-04-27 19:32:00,63.0,-99.9,30.28,SSE,166,-999.0,6.0,-999,-99.99,,,-99.99,,2013-04-27 23:32:00,
2013-04-27 19:43:00,63.0,-99.9,30.28,SSE,166,-999.0,6.0,-999,-99.99,,,-99.99,,2013-04-27 23:43:00,
2013-04-27 19:52:00,57.0,-99.9,30.28,SSE,166,-999.0,-999.0,-999,-99.99,,,-99.99,,2013-04-27 23:52:00,
2013-04-27 20:22:00,57.0,-99.9,30.28,SSE,166,-999.0,-999.0,-999,-99.99,,,-99.99,,2013-04-28 00:22:00,
2013-04-27 20:32:00,57.0,-99.9,30.28,SSE,166,-999.0,-999.0,-999,-99.99,,,-99.99,,2013-04-28 00:32:00,
2013-04-27 20:43:00,57.0,-99.9,30.28,SSE,166,-999.0,-999.0,-999,-99.99,,,-99.99,,2013-04-28 00:43:00,
2013-04-27 20:52:00,54.0,-99.9,30.29,SSE,166,-999.0,-999.0,-999,-99.99,,,-99.99,,2013-04-28 00:52:00,
2013-04-27 21:22:00,54.0,-99.9,30.29,SSE,166,-999.0,-999.0,-999,-99.99,,,-99.99,,2013-04-28 01:22:00,
2013-04-27 21:32:00,54.0,-99.9,30.29,SSE,166,-999.0,-999.0,-999,-99.99,,,-99.99,,2013-04-28 01:32:00,
2013-04-27 21:42:00,54.0,-99.9,30.29,SSE,166,-999.0,-999.0,-999,-99.99,,,-99.99,,2013-04-28 01:42:00,
2013-04-27 21:52:00,50.0,-99.9,30.30,SSE,166,-999.0,-999.0,-999,-99.99,,,-99.99,,2013-04-28 01:52:00,
2013-04-27 22:22:00,50.0,-99.9,30.30,SSE,166,-999.0,-999.0,-999,-99.99,,,-99.99,,2013-04-28 02:22:00,
2013-04-27 22:32:00,50.0,-99.9,30.30,SSE,166,-999.0,-999.0,-999,-99.99,,,-99.99,,2013-04-28 02:32:00,
2013-04-27 22:42:00,50.0,-99.9,30.30,SSE,166,-999.0,-999.0,-999,-99.99,,,-99.99,,2013-04-28 02:42:00,
2013-04-27 22:52:00,47.0,-99.9,30.30,SSE,166,-999.0,-999.0,-999,-99.99,,,-99.99,,2013-04-28 02:52:00,
2013-04-27 23:22:00,47.0,-99.9,30.30,SSE,166,-999.0,-999.0,-999,-99.99,,,-99.99,,2013-04-28 03:22:00,
2013-04-27 23:33:00,47.0,-99.9,30.30,SSE,166,-999.0,-999.0,-999,-99.99,,,-99.99,,2013-04-28 03:33:00,
2013-04-27 23:43:00,47.0,-99.9,30.30,SSE,166,-999.0,-999.0,-999,-99.99,,,-99.99,,2013-04-28 03:43:00,
2013-04-27 23:52:00,45.0,-99.9,30.30,SSE,166,-999.0,-999.0,-999,-99.99,,,-99.99,,2013-04-28 03:52:00,